When you browse on this site, cookies collect data to enhance your experience and personalize the content and advertising you see.
Visit our Privacy Policy to learn more. By continuing to use the site, you agree to this use of cookies and data.
  • In Spain
  • List of Countries
  • For 7 days
  • Water Temperature
  • Satellite Maps
  • Weather Map
  • Weather Widgets
  • user-avatar
    Login

    Hourly Weather Eisenstadt

    Today, 18 February, Monday

    Time Temperature Precipitation Wind Pressure Humidity
    00:00 +5°C° 0 mm 1 mps 728 mmHg 67%
    01:00 +5°C° 0 mm 1 mps 728 mmHg 66%
    02:00 +5°C° 0 mm 1 mps 728 mmHg 66%
    03:00 +4°C° 0 mm 1 mps 727 mmHg 65%
    04:00 +4°C° 0 mm 1 mps 727 mmHg 65%
    05:00 +4°C° 0 mm 1 mps 727 mmHg 65%
    06:00 +4°C° 0 mm 1 mps 727 mmHg 65%
    07:00 +1°C° 0 mm 0 mps 727 mmHg 65%
    08:00 +3°C° 0 mm 0 mps 727 mmHg 61%
    09:00 +6°C° 0 mm 1 mps 727 mmHg 57%
    10:00 +8°C° 0 mm 1 mps 727 mmHg 53%
    11:00 +9°C° 0 mm 1 mps 727 mmHg 51%
    12:00 +10°C° 0 mm 1 mps 727 mmHg 49%
    13:00 +12°C° 0 mm 2 mps 727 mmHg 49%
    14:00 +10°C° 0 mm 2 mps 726 mmHg 51%
    15:00 +10°C° 0 mm 2 mps 726 mmHg 54%
    16:00 +10°C° 0 mm 2 mps 725 mmHg 57%
    17:00 +8°C° 0 mm 2 mps 725 mmHg 62%
    18:00 +7°C° 0 mm 2 mps 725 mmHg 67%
    19:00 +5°C° 0 mm 2 mps 725 mmHg 72%
    20:00 +5°C° 0 mm 2 mps 725 mmHg 73%
    21:00 +4°C° 0 mm 2 mps 725 mmHg 74%
    22:00 +4°C° 0 mm 2 mps 725 mmHg 75%
    23:00 +4°C° 0 mm 2 mps 724 mmHg 76%

    Tomorrow, 19 February, Tuesday

    Time Temperature Precipitation Wind Pressure Humidity
    00:00 +3°C° 0 mm 2 mps 724 mmHg 76%
    01:00 +3°C° 0 mm 2 mps 724 mmHg 77%
    02:00 +4°C° 0 mm 1 mps 724 mmHg 77%
    03:00 +4°C° 0 mm 1 mps 724 mmHg 77%
    04:00 +3°C° 0 mm 1 mps 724 mmHg 77%
    05:00 +3°C° 0 mm 1 mps 724 mmHg 76%
    06:00 +3°C° 0 mm 1 mps 724 mmHg 76%
    07:00 +3°C° 0 mm 1 mps 724 mmHg 75%
    08:00 +4°C° 0 mm 1 mps 724 mmHg 69%
    09:00 +5°C° 0 mm 0 mps 724 mmHg 63%
    10:00 +7°C° 0 mm 0 mps 724 mmHg 58%
    11:00 +8°C° 0 mm 0 mps 724 mmHg 54%
    12:00 +11°C° 0 mm 1 mps 724 mmHg 51%
    13:00 +12°C° 0 mm 1 mps 724 mmHg 48%
    14:00 +12°C° 0 mm 1 mps 724 mmHg 49%
    15:00 +12°C° 0 mm 1 mps 724 mmHg 50%
    16:00 +12°C° 0 mm 1 mps 724 mmHg 52%
    17:00 +10°C° 0 mm 1 mps 724 mmHg 57%
    18:00 +8°C° 0 mm 1 mps 724 mmHg 63%
    19:00 +7°C° 0 mm 1 mps 724 mmHg 69%
    20:00 +7°C° 0 mm 1 mps 724 mmHg 69%
    21:00 +6°C° 0 mm 1 mps 725 mmHg 69%
    22:00 +6°C° 0 mm 1 mps 725 mmHg 70%
    23:00 +6°C° 0 mm 1 mps 725 mmHg 69%

    Day after tomorrow, 20 February, Wednesday

    Time Temperature Precipitation Wind Pressure Humidity
    00:00 +6°C° 0 mm 1 mps 725 mmHg 69%
    01:00 +5°C° 0 mm 1 mps 725 mmHg 68%
    02:00 +5°C° 0 mm 1 mps 725 mmHg 69%
    03:00 +5°C° 0 mm 1 mps 725 mmHg 71%
    04:00 +5°C° 0 mm 1 mps 725 mmHg 72%
    05:00 +5°C° 0 mm 1 mps 726 mmHg 75%
    06:00 +5°C° 0 mm 1 mps 726 mmHg 78%
    07:00 +5°C° 0 mm 1 mps 726 mmHg 81%
    08:00 +7°C° 0 mm 1 mps 727 mmHg 76%
    09:00 +8°C° 0 mm 1 mps 727 mmHg 72%
    10:00 +9°C° 0 mm 1 mps 728 mmHg 68%
    11:00 +10°C° 0 mm 1 mps 728 mmHg 64%
    12:00 +10°C° 0 mm 2 mps 728 mmHg 60%
    13:00 +12°C° 0 mm 2 mps 727 mmHg 57%
    14:00 +11°C° 0 mm 1 mps 727 mmHg 58%
    15:00 +11°C° 0 mm 1 mps 727 mmHg 60%
    16:00 +11°C° 0 mm 1 mps 727 mmHg 61%
    17:00 +10°C° 0 mm 1 mps 727 mmHg 67%
    18:00 +8°C° 0 mm 1 mps 728 mmHg 72%
    19:00 +7°C° 0 mm 1 mps 728 mmHg 77%
    20:00 +7°C° 0 mm 1 mps 728 mmHg 79%
    21:00 +6°C° 0 mm 1 mps 729 mmHg 80%
    22:00 +6°C° 0 mm 1 mps 729 mmHg 81%
    23:00 +6°C° 0 mm 1 mps 729 mmHg 82%

    21 February, Thursday

    Time Temperature Precipitation Wind Pressure Humidity
    00:00 +5°C° 0 mm 1 mps 729 mmHg 82%
    01:00 +5°C° 0 mm 1 mps 729 mmHg 83%
    02:00 +5°C° 0 mm 1 mps 729 mmHg 83%
    03:00 +5°C° 0 mm 1 mps 729 mmHg 84%
    04:00 +5°C° 0 mm 1 mps 729 mmHg 85%
    05:00 +5°C° 0 mm 1 mps 729 mmHg 85%
    06:00 +4°C° 0 mm 1 mps 729 mmHg 85%
    07:00 +4°C° 0 mm 1 mps 729 mmHg 85%
    08:00 +6°C° 0 mm 1 mps 730 mmHg 78%
    09:00 +8°C° 0 mm 1 mps 730 mmHg 71%
    10:00 +10°C° 0 mm 1 mps 730 mmHg 64%
    11:00 +11°C° 0 mm 1 mps 730 mmHg 61%
    12:00 +11°C° 0 mm 1 mps 730 mmHg 57%
    13:00 +12°C° 0 mm 1 mps 730 mmHg 54%
    14:00 +12°C° 0.1 mm 1 mps 730 mmHg 57%
    15:00 +12°C° 0.1 mm 1 mps 729 mmHg 60%
    16:00 +11°C° 0.1 mm 1 mps 729 mmHg 62%
    17:00 +11°C° 0 mm 1 mps 729 mmHg 65%
    18:00 +9°C° 0 mm 2 mps 729 mmHg 67%
    19:00 +8°C° 0 mm 2 mps 729 mmHg 69%
    20:00 +7°C° 0 mm 2 mps 730 mmHg 70%
    21:00 +7°C° 0 mm 2 mps 730 mmHg 70%
    22:00 +5°C° 0 mm 3 mps 730 mmHg 71%
    23:00 +7°C° 0 mm 3 mps 730 mmHg 71%

    22 February, Friday

    Time Temperature Precipitation Wind Pressure Humidity
    00:00 +7°C° 0 mm 3 mps 730 mmHg 72%
    01:00 +6°C° 0 mm 4 mps 731 mmHg 72%
    02:00 +6°C° 0 mm 4 mps 731 mmHg 74%
    03:00 +7°C° 0 mm 3 mps 731 mmHg 76%
    04:00 +7°C° 0 mm 3 mps 731 mmHg 78%
    05:00 +5°C° 0 mm 4 mps 731 mmHg 79%
    06:00 +5°C° 0 mm 4 mps 731 mmHg 80%
    07:00 +5°C° 0 mm 4 mps 731 mmHg 81%
    08:00 +6°C° 0.1 mm 5 mps 731 mmHg 79%
    09:00 +5°C° 0.1 mm 6 mps 732 mmHg 78%
    10:00 +7°C° 0.1 mm 6 mps 732 mmHg 76%
    11:00 +6°C° 0.1 mm 7 mps 732 mmHg 73%
    12:00 +8°C° 0.1 mm 7 mps 733 mmHg 71%
    13:00 +7°C° 0.1 mm 8 mps 733 mmHg 68%
    14:00 +8°C° 0 mm 7 mps 733 mmHg 68%
    15:00 +6°C° 0 mm 7 mps 733 mmHg 67%
    16:00 +6°C° 0 mm 7 mps 733 mmHg 66%
    17:00 +5°C° 0 mm 7 mps 734 mmHg 67%
    18:00 +4°C° 0 mm 6 mps 735 mmHg 68%
    19:00 +3°C° 0 mm 6 mps 735 mmHg 69%
    20:00 +2°C° 0 mm 5 mps 736 mmHg 67%
    21:00 +1°C° 0 mm 5 mps 737 mmHg 65%
    22:00 0°C° 0 mm 5 mps 737 mmHg 63%
    23:00 0°C° 0 mm 4 mps 738 mmHg 63%

    23 February, Saturday

    Time Temperature Precipitation Wind Pressure Humidity
    00:00 -1°C° 0 mm 4 mps 738 mmHg 63%
    01:00 -1°C° 0 mm 3 mps 739 mmHg 63%
    02:00 -1°C° 0 mm 3 mps 739 mmHg 64%
    03:00 -2°C° 0 mm 2 mps 739 mmHg 65%
    04:00 0°C° 0 mm 1 mps 739 mmHg 67%
    05:00 -1°C° 0 mm 1 mps 739 mmHg 67%
    06:00 -2°C° 0 mm 0 mps 739 mmHg 67%
    07:00 -2°C° 0 mm 0 mps 739 mmHg 68%
    08:00 0°C° 0 mm 0 mps 739 mmHg 62%
    09:00 +1°C° 0 mm 0 mps 739 mmHg 55%
    10:00 +3°C° 0 mm 0 mps 739 mmHg 49%
    11:00 +4°C° 0 mm 0 mps 739 mmHg 46%
    12:00 +6°C° 0 mm 1 mps 739 mmHg 43%
    13:00 +7°C° 0 mm 1 mps 738 mmHg 40%
    14:00 +7°C° 0 mm 1 mps 738 mmHg 40%
    15:00 +7°C° 0 mm 1 mps 737 mmHg 41%
    16:00 +7°C° 0 mm 1 mps 737 mmHg 41%
    17:00 +6°C° 0 mm 1 mps 736 mmHg 46%
    18:00 +4°C° 0 mm 1 mps 736 mmHg 50%
    19:00 +2°C° 0 mm 0 mps 736 mmHg 55%
    20:00 +3°C° 0 mm 1 mps 736 mmHg 56%
    21:00 +3°C° 0 mm 1 mps 736 mmHg 57%
    22:00 +3°C° 0 mm 1 mps 736 mmHg 58%
    23:00 +3°C° 0 mm 1 mps 736 mmHg 61%
    Show more